When you browse on this site, cookies collect data to enhance your experience and personalize the content and advertising you see.
Visit our Privacy Policy to learn more. By continuing to use the site, you agree to this use of cookies and data.
  • In Romania
  • List of Countries
  • For 7 days
  • Water Temperature
  • Satellite Maps
  • Weather Map
  • Weather Widgets
  • user-avatar
    Login

    Hourly Weather Orehovatka

    Today, 24 March, Sunday

    Time Temperature Precipitation Wind Pressure Humidity
    00:00 0°C° 0.9 mm 4 mps 742 mmHg 77%
    01:00 +1°C° 0.9 mm 3 mps 741 mmHg 78%
    02:00 +1°C° 0 mm 3 mps 740 mmHg 80%
    03:00 +1°C° 0.2 mm 3 mps 740 mmHg 82%
    04:00 +1°C° 0.2 mm 3 mps 739 mmHg 83%
    05:00 +1°C° 0.2 mm 3 mps 739 mmHg 85%
    06:00 +1°C° 0 mm 3 mps 738 mmHg 85%
    07:00 +1°C° 0 mm 4 mps 738 mmHg 86%
    08:00 +1°C° 0 mm 4 mps 738 mmHg 87%
    09:00 +2°C° 0 mm 5 mps 738 mmHg 81%
    10:00 +2°C° 0 mm 5 mps 738 mmHg 74%
    11:00 +3°C° 0 mm 5 mps 738 mmHg 68%
    12:00 +4°C° 0.1 mm 6 mps 738 mmHg 64%
    13:00 +4°C° 0.1 mm 6 mps 738 mmHg 59%
    14:00 +4°C° 0.1 mm 6 mps 738 mmHg 54%
    15:00 +5°C° 0 mm 5 mps 738 mmHg 56%
    16:00 +4°C° 0 mm 4 mps 738 mmHg 58%
    17:00 +3°C° 0 mm 3 mps 738 mmHg 60%
    18:00 +2°C° 0 mm 3 mps 738 mmHg 64%
    19:00 +1°C° 0 mm 3 mps 738 mmHg 67%
    20:00 +1°C° 0 mm 2 mps 738 mmHg 71%
    21:00 -1°C° 0 mm 2 mps 738 mmHg 73%
    22:00 -1°C° 0 mm 2 mps 738 mmHg 76%
    23:00 -2°C° 0 mm 2 mps 738 mmHg 78%

    Tomorrow, 25 March, Monday

    Time Temperature Precipitation Wind Pressure Humidity
    00:00 -2°C° 0 mm 2 mps 738 mmHg 79%
    01:00 -2°C° 0 mm 2 mps 738 mmHg 80%
    02:00 -3°C° 0 mm 2 mps 738 mmHg 81%
    03:00 -3°C° 0 mm 2 mps 738 mmHg 81%
    04:00 -3°C° 0 mm 2 mps 738 mmHg 81%
    05:00 -3°C° 0 mm 2 mps 737 mmHg 81%
    06:00 -2°C° 0 mm 2 mps 737 mmHg 77%
    07:00 -1°C° 0 mm 2 mps 737 mmHg 73%
    08:00 0°C° 0 mm 3 mps 737 mmHg 68%
    09:00 +1°C° 0 mm 3 mps 737 mmHg 61%
    10:00 +3°C° 0 mm 3 mps 737 mmHg 55%
    11:00 +5°C° 0 mm 4 mps 736 mmHg 48%
    12:00 +5°C° 0 mm 4 mps 736 mmHg 47%
    13:00 +5°C° 0 mm 4 mps 736 mmHg 46%
    14:00 +6°C° 0 mm 4 mps 735 mmHg 45%
    15:00 +5°C° 0 mm 3 mps 735 mmHg 51%
    16:00 +5°C° 0 mm 2 mps 735 mmHg 56%
    17:00 +4°C° 0 mm 2 mps 735 mmHg 62%
    18:00 +3°C° 0 mm 2 mps 735 mmHg 66%
    19:00 +2°C° 0 mm 2 mps 735 mmHg 71%
    20:00 +1°C° 0 mm 2 mps 734 mmHg 76%
    21:00 -1°C° 0 mm 2 mps 734 mmHg 77%
    22:00 -1°C° 0 mm 2 mps 734 mmHg 78%
    23:00 -1°C° 0 mm 2 mps 734 mmHg 79%

    Day after tomorrow, 26 March, Tuesday

    Time Temperature Precipitation Wind Pressure Humidity
    00:00 -1°C° 0 mm 2 mps 734 mmHg 82%
    01:00 -1°C° 0 mm 2 mps 734 mmHg 85%
    02:00 -2°C° 0 mm 2 mps 733 mmHg 88%
    03:00 -1°C° 0.2 mm 2 mps 733 mmHg 89%
    04:00 -1°C° 0.2 mm 2 mps 733 mmHg 90%
    05:00 -1°C° 0.2 mm 3 mps 733 mmHg 91%
    06:00 -1°C° 0.4 mm 3 mps 733 mmHg 89%
    07:00 -2°C° 0.4 mm 4 mps 733 mmHg 87%
    08:00 -2°C° 0.4 mm 4 mps 733 mmHg 84%
    09:00 -2°C° 0.1 mm 4 mps 733 mmHg 79%
    10:00 -2°C° 0.1 mm 4 mps 733 mmHg 73%
    11:00 -1°C° 0.1 mm 4 mps 733 mmHg 68%
    12:00 -1°C° 0.1 mm 4 mps 733 mmHg 64%
    13:00 -1°C° 0.1 mm 4 mps 733 mmHg 59%
    14:00 +1°C° 0.1 mm 3 mps 733 mmHg 55%
    15:00 0°C° 0.1 mm 3 mps 733 mmHg 57%
    16:00 +1°C° 0.1 mm 2 mps 734 mmHg 60%
    17:00 +2°C° 0.1 mm 1 mps 734 mmHg 62%
    18:00 +1°C° 0 mm 1 mps 734 mmHg 67%
    19:00 -1°C° 0 mm 1 mps 734 mmHg 72%
    20:00 -2°C° 0 mm 1 mps 735 mmHg 77%
    21:00 -2°C° 0 mm 1 mps 735 mmHg 78%
    22:00 -3°C° 0 mm 1 mps 735 mmHg 79%
    23:00 -3°C° 0 mm 1 mps 736 mmHg 80%

    27 March, Wednesday

    Time Temperature Precipitation Wind Pressure Humidity
    00:00 -5°C° 0 mm 2 mps 736 mmHg 81%
    01:00 -5°C° 0 mm 2 mps 737 mmHg 81%
    02:00 -6°C° 0 mm 3 mps 737 mmHg 82%
    03:00 -6°C° 0 mm 3 mps 738 mmHg 83%
    04:00 -6°C° 0 mm 3 mps 738 mmHg 84%
    05:00 -7°C° 0 mm 4 mps 738 mmHg 85%
    06:00 -5°C° 0.1 mm 4 mps 739 mmHg 81%
    07:00 -5°C° 0.1 mm 5 mps 739 mmHg 77%
    08:00 -4°C° 0.1 mm 5 mps 740 mmHg 73%
    09:00 -4°C° 0.1 mm 5 mps 740 mmHg 69%
    10:00 -2°C° 0.1 mm 5 mps 741 mmHg 66%
    11:00 -2°C° 0.1 mm 5 mps 741 mmHg 62%
    12:00 -2°C° 0.1 mm 5 mps 742 mmHg 61%
    13:00 -1°C° 0.1 mm 5 mps 742 mmHg 60%
    14:00 -1°C° 0.1 mm 5 mps 743 mmHg 60%
    15:00 -2°C° 0 mm 5 mps 744 mmHg 61%
    16:00 -2°C° 0 mm 5 mps 744 mmHg 63%
    17:00 -2°C° 0 mm 5 mps 745 mmHg 65%
    18:00 -2°C° 0 mm 4 mps 745 mmHg 66%
    19:00 -3°C° 0 mm 4 mps 746 mmHg 68%
    20:00 -2°C° 0 mm 3 mps 747 mmHg 69%
    21:00 -4°C° 0 mm 3 mps 747 mmHg 72%
    22:00 -5°C° 0 mm 3 mps 747 mmHg 75%
    23:00 -5°C° 0 mm 3 mps 748 mmHg 78%

    28 March, Thursday

    Time Temperature Precipitation Wind Pressure Humidity
    00:00 -6°C° 0 mm 3 mps 748 mmHg 79%
    01:00 -6°C° 0 mm 3 mps 749 mmHg 81%
    02:00 -5°C° 0 mm 2 mps 749 mmHg 82%
    03:00 -6°C° 0 mm 2 mps 750 mmHg 82%
    04:00 -6°C° 0 mm 2 mps 750 mmHg 83%
    05:00 -6°C° 0 mm 2 mps 750 mmHg 83%
    06:00 -5°C° 0 mm 2 mps 751 mmHg 78%
    07:00 -4°C° 0 mm 2 mps 751 mmHg 72%
    08:00 -3°C° 0 mm 2 mps 752 mmHg 66%
    09:00 -2°C° 0 mm 2 mps 752 mmHg 57%
    10:00 +1°C° 0 mm 2 mps 752 mmHg 48%
    11:00 +2°C° 0 mm 2 mps 752 mmHg 40%
    12:00 +3°C° 0 mm 2 mps 752 mmHg 40%
    13:00 +2°C° 0 mm 3 mps 751 mmHg 40%
    14:00 +3°C° 0 mm 3 mps 751 mmHg 41%
    15:00 +3°C° 0 mm 3 mps 751 mmHg 46%
    16:00 +2°C° 0 mm 3 mps 750 mmHg 52%
    17:00 +3°C° 0 mm 2 mps 750 mmHg 58%
    18:00 +2°C° 0 mm 2 mps 750 mmHg 62%
    19:00 0°C° 0 mm 3 mps 749 mmHg 66%
    20:00 0°C° 0 mm 3 mps 749 mmHg 70%
    21:00 -1°C° 0 mm 3 mps 749 mmHg 72%
    22:00 -1°C° 0 mm 3 mps 748 mmHg 74%
    23:00 -2°C° 0 mm 4 mps 748 mmHg 76%

    29 March, Friday

    Time Temperature Precipitation Wind Pressure Humidity
    00:00 -2°C° 0 mm 4 mps 748 mmHg 80%
    01:00 -1°C° 0 mm 4 mps 747 mmHg 83%
    02:00 -1°C° 0 mm 4 mps 747 mmHg 87%
    03:00 -1°C° 0 mm 5 mps 746 mmHg 88%
    04:00 -1°C° 0 mm 5 mps 746 mmHg 89%
    05:00 0°C° 0 mm 5 mps 746 mmHg 89%
    06:00 0°C° 0 mm 5 mps 746 mmHg 88%
    07:00 0°C° 0 mm 5 mps 746 mmHg 86%
    08:00 0°C° 0 mm 5 mps 746 mmHg 84%
    09:00 +1°C° 0 mm 5 mps 747 mmHg 77%
    10:00 +3°C° 0 mm 4 mps 747 mmHg 70%
    11:00 +4°C° 0 mm 4 mps 747 mmHg 63%
    12:00 +5°C° 0 mm 4 mps 747 mmHg 60%
    13:00 +5°C° 0 mm 4 mps 747 mmHg 58%
    14:00 +7°C° 0 mm 3 mps 746 mmHg 55%
    15:00 +7°C° 0 mm 3 mps 746 mmHg 60%
    16:00 +6°C° 0 mm 2 mps 746 mmHg 65%
    17:00 +7°C° 0 mm 1 mps 745 mmHg 69%
    18:00 +4°C° 0 mm 2 mps 745 mmHg 76%
    19:00 +3°C° 0 mm 2 mps 745 mmHg 82%
    20:00 +2°C° 0 mm 2 mps 745 mmHg 88%
    21:00 +2°C° 0 mm 2 mps 744 mmHg 90%
    22:00 +2°C° 0 mm 2 mps 744 mmHg 92%
    23:00 +2°C° 0 mm 3 mps 744 mmHg 94%
    Show more